Location: Czekan�w
(50.3488°N, 18.7344°E)
Time: 00:38:24
(UTC+00:00)

Meteor 2-3 Rocket - Pass Details

Date: 17 February 2020
Orbit: 842 x 885 km, 81.3° (Epoch: 04 April)

Event Time Altitude Azimuth Distance (km) Brightness Sun altitude
Rises 03:14:08 0° 349° (NNW) 3,459 6.9 -26.0°
Reaches altitude 10° 03:16:35 10° 352° (N) 2,524 6.2 -25.6°
Maximum altitude 03:22:19 68° 75° (ENE) 944 4.0 -24.7°
Drops below altitude 10° 03:28:03 10° 159° (SSE) 2,532 6.3 -23.8°
Sets 03:30:31 0° 161° (SSE) 3,470 7.0 -23.4°
